This demonstration page uses our WeatherBlox Daily Observations layout. Learn more.

Left ArrowRight Arrow

30.21309, -93.2044

Hourly Observations for August 18, 2022

Temp ( °F °C ) Dew Point ( °F °C ) Humidity (%) Winds ( mph kmh ) Pressure ( in mb ) Visibility ( mi km ) Precip ( " mm )
12:15 am 00:15 Clear 83 28.3 76 24.7 81 81 SSW 7 11 29.94 1014 10 16 0.00 0.00
12:35 am 00:35 Clear 83 28.1 76 24.7 82 82 WSW 5 7 29.94 1014 10 16 0.00 0.00
12:55 am 00:55 Clear 83 28.4 77 24.8 81 81 SW 6 9 29.94 1014 10 16 0.00 0.00
1:15 am 01:15 Clear 83 28.4 77 24.8 81 81 WSW 7 11 29.95 1014 10 16 0.00 0.00
1:35 am 01:35 Clear 84 28.7 77 24.8 80 80 W 7 11 29.95 1014 10 16 0.00 0.00
1:55 am 01:55 Clear 83 28.5 77 25 81 81 W 6 9 29.94 1014 10 16 0.00 0.00
2:15 am 02:15 Clear 83 28.6 77 25 81 81 WSW 8 13 29.94 1014 10 16 0.00 0.00
2:35 am 02:35 Clear 83 28.5 77 24.9 81 81 WSW 8 13 29.94 1014 10 16 0.00 0.00
2:55 am 02:55 Clear 83 28.5 76 24.7 80 80 WSW 9 15 29.94 1014 10 16 0.00 0.00
3:15 am 03:15 Clear 83 28.4 76 24.7 80 80 WSW 7 11 29.94 1014 10 16 0.00 0.00
3:35 am 03:35 Partly Cloudy 83 28.2 76 24.7 81 81 SW 6 9 29.93 1013 10 16 0.00 0.00
3:55 am 03:55 Partly Cloudy 82 27.9 76 24.7 83 83 WSW 8 13 29.93 1013 10 16 0.00 0.00
4:15 am 04:15 Clear 82 27.8 76 24.7 83 83 WSW 8 13 29.92 1013 10 16 0.00 0.00
4:35 am 04:35 Clear 82 27.9 77 24.9 84 84 W 9 15 29.93 1013 10 16 0.00 0.00
4:55 am 04:55 Clear 82 27.9 77 24.8 83 83 W 8 13 29.93 1013 10 16 0.00 0.00
5:15 am 05:15 Clear 82 27.9 76 24.6 82 82 W 7 11 29.93 1013 10 16 0.00 0.00
5:35 am 05:35 Clear 82 28 76 24.5 81 81 W 10 17 29.93 1013 10 16 0.00 0.00
6:00 am 06:00 Partly Cloudy 82 28 75 24 79 79 W 14 22 29.94 1014 10 16 0.00 0.00
6:45 am 06:45 Mostly Sunny 82 28 75 24 79 79 WSW 8 13 29.93 1013 10 16 0.00 0.00
7:45 am 07:45 Mostly Sunny 82 28 75 24 79 79 W 13 20 29.93 1013 10 16 0.00 0.00
8:45 am 08:45 Mostly Sunny 84 29 75 24 74 74 W 10 17 29.94 1014 10 16 0.00 0.00
9:45 am 09:45 Partly Cloudy 88 31 75 24 66 66 W 9 15 29.96 1014 10 16 0.00 0.00
10:45 am 10:45 Partly Cloudy 88 31 75 24 66 66 NNW 10 17 29.96 1014 10 16 0.00 0.00
11:45 am 11:45 Mostly Cloudy 88 31 75 24 66 66 W 7 11 29.96 1014 10 16 0.00 0.00
12:55 pm 12:55 Mostly Cloudy 88 31 75 24 66 66 W 6 9 29.95 1014 10 16 0.00 0.00
1:45 pm 13:45 Mostly Cloudy with Thunderstorms 88 31 73 23 63 63 N 23 37 29.94 1014 10 16 0.00 0.00
2:48 pm 14:48 Mostly Cloudy with Thunderstorms 75 24 70 21 83 83 N 6 9 29.92 1013 7 11 0.00 0.00
3:54 pm 15:54 Partly Cloudy 79 26 73 23 84 84 SSE 7 11 29.89 1012 10 16 0.00 0.00
4:55 pm 16:55 Mostly Cloudy 79 26 73 23 84 84 E 7 11 29.94 1014 10 16 0.00 0.00
5:48 pm 17:48 Mostly Sunny 79 26 73 23 84 84 Calm 29.93 1013 10 16 0.00 0.00
6:52 pm 18:52 Mostly Sunny 79 26 73 23 84 84 NNW 6 9 29.94 1014 10 16 0.00 0.00
7:52 pm 19:52 Partly Cloudy with Rain 75 24 73 23 94 94 NNW 6 9 29.91 1013 10 16 0.00 0.00
8:55 pm 20:55 Mostly Clear 75 24 73 23 94 94 Calm 29.92 1013 10 16 0.00 0.00
9:45 pm 21:45 Partly Cloudy 77 25 73 23 89 89 WSW 8 13 29.94 1014 10 16 0.00 0.00
10:15 pm 22:15 Clear 77 24.8 74 23.5 93 93 SW 10 17 29.94 1014 10 16 0.00 0.00
10:35 pm 22:35 Clear 77 24.9 74 23.4 91 91 SW 7 11 29.94 1014 10 16 0.00 0.00
10:55 pm 22:55 Clear 77 24.9 74 23.1 90 90 WSW 5 7 29.94 1014 10 16 0.00 0.00
11:15 pm 23:15 Clear 77 24.9 74 23.2 90 90 NW 3 6 29.94 1014 10 16 0.00 0.00
11:35 pm 23:35 Clear 77 24.9 74 23.4 91 91 W 3 6 29.94 1014 10 16 0.00 0.00
11:55 pm 23:55 Clear 77 24.8 74 23.1 90 90 NNE 3 6 29.95 1014 10 16 0.00 0.00

Powered by AerisWeather